Regional Weather Roundup
Issued by NWS

Home | Current Version | Previous Version | Graphics & Text | Print | Product List | Glossary On
Versions: 1 2 3 4 5 6 7 8 9 10 11 12 13 14 15 16 17 18 19 20 21 22 23 24 25 26 27 28 29 30 31 32 33 34 35 36 37 38 39 40 41 42 43 44 45 46 47 48 49 50
604
ASUS43 KLMK 221210
RWRKY
KENTUCKY REGIONAL WEATHER ROUNDUP
NATIONAL WEATHER SERVICE LOUISVILLE KY
800 AM EDT MON MAY 22 2017

NOTE "FAIR" INDICATES FEW OR NO CLOUDS BELOW 12,000 FEET
WITH NO SIGNIFICANT WEATHER AND/OR OBSTRUCTIONS TO VISIBILITY.

KYZ001>023-026-027-061>063-070>075-221300-
WESTERN AND SOUTH CENTRAL KENTUCKY

CITY           SKY/WX    TMP DP  RH WIND       PRES   REMARKS
PADUCAH        CLOUDY    56  52  86 CALM      30.16R
HENDERSON      MOSUNNY   57  53  86 CALM      30.17R
OWENSBORO      MOSUNNY   56  53  90 S5        30.19R
HOPKINSVILLE   CLOUDY    58  52  79 E5        30.17R
BOWLING GREEN  PTSUNNY   59  54  83 CALM      30.19R
GLASGOW        CLOUDY    58  49  74 CALM      30.19R
$$

KYZ024-025-028>034-038-045-046-053-221300-
NORTH CENTRAL KENTUCKY

CITY           SKY/WX    TMP DP  RH WIND       PRES   REMARKS
LOUISVILLE/SDF PTSUNNY   57  46  66 SE3       30.16R
LOUISVILLE/LOU MOSUNNY   56  48  74 S3        30.16R
FORT KNOX      CLOUDY    57  52  82 S5        30.17R
$$

KYZ035>037-039>044-047>052-055>060-089>105-221300-
NORTHEAST KENTUCKY

CITY           SKY/WX    TMP DP  RH WIND       PRES   REMARKS
LEXINGTON      CLOUDY    56  44  64 N3        30.15R
COVINGTON      PTSUNNY   54  46  74 CALM      30.13R
FRANKFORT      MOSUNNY   55  48  77 CALM      30.14R
$$

KYZ054-064>069-076>088-106>120-221300-
SOUTHEAST KENTUCKY

CITY           SKY/WX    TMP DP  RH WIND       PRES   REMARKS
JACKSON        CLOUDY    58  52  80 NW8       30.15R
LONDON         CLOUDY    57  51  80 N7        30.16R
SOMERSET       CLOUDY    55  50  82 NE3       30.19R
MIDDLESBORO    CLOUDY    63  58  84 NW9       30.13R
MONTICELLO     NOT AVBL
$$





USA.gov is the U.S. government's official web portal to all federal, state and local government web resources and services.